Tracking 30056 objects as of 10-Dec-2024
HD Live streaming from Space Station
objects crossing your sky now

STARLINK-5860

Track STARLINK-5860 now!
10-day predictions
STARLINK-5860 is classified as:


NORAD ID: 57052
Int'l Code: 2023-088E
Perigee: 565.4 km
Apogee: 567.0 km
Inclination: 43.0 °
Period: 95.8 minutes
Semi major axis: 6937 km
RCS: Unknown
Launch date: June 22, 2023
Source: United States (US)
Launch site: AIR FORCE WESTERN TEST RANGE (AFWTR)
Your satellite tracking list
Your tracking list is empty




NASA's NSSDC Master Catalog

Two Line Element Set (TLE):
1 57052U 23088E   24344.89524486 -.00000563  00000-0 -26586-4 0  9990
2 57052  43.0050  58.9780 0001187 267.3475  92.7231 15.02543141 81055
Source of the keplerian elements: AFSPC